Location: Newark
(47.5833°N, 8.1500°E)
Time: 14:51:53
(UTC+00:00)

Tiros 1 - Pass Details

Date: 01 November 2020
Orbit: 630 x 664 km, 48.4° (Epoch: 29 November)

Event Time Altitude Azimuth Distance (km) Brightness Sun altitude
Exits shadow 02:36:30 18° 80° (E) 1,557 9.7 -36.4°
Drops below altitude 10° 02:37:42 10° 78° (ENE) 2,010 10.4 -36.2°
Sets 02:40:01 0° 75° (ENE) 2,918 11.5 -35.8°
